[[{"header":{"parameterUnit":"m.s-1","parameterCategory":1,"la1":30.2991,"la2":30.254,"lo1":-89.0895,"lo2":-89.0444,"dy":0.0017,"dx":0.0017,"nx":28,"ny":28,"refTime":"2025-07-31T21:00:00:Z","depth":0,"parameterNumber":2,"parameterNumberName":"U-component_of_WINDS"},"data":[0,0,0,0,0,0,0,0,0,0,0,0,0,0,0,0,0,0,0,0,0,0,0,0,0,0,0,0,0,0,0,0,0,0,0,0,0,0,0,0,0,0,0,0,0,0,0,0,0,0,0,0,0,0,0,0,0,0,4.2165,4.2167,0,4.2333,4.2334,4.2336,4.2295,4.2292,4.2289,4.2286,4.2459,4.2466,4.2474,0,0,0,0,0,0,0,0,0,0,0,0,0,4.181,4.1816,4.2165,4.2167,4.2169,4.2332,4.2335,4.2337,4.2296,4.2292,4.2288,4.2284,4.2456,4.2465,4.2474,0,0,0,0,0,0,0,0,0,0,0,0,0,4.1969,4.1819,4.2165,4.2169,4.2171,4.2332,4.2335,4.2337,4.2297,4.2292,4.2287,4.2283,4.2453,4.2464,4.2476,4.2644,0,0,4.2511,4.2516,0,0,0,0,0,0,0,0,4.196,4.1982,4.2166,4.2169,4.2171,4.2288,4.2272,4.244,4.2298,4.2249,4.2286,4.228,4.2406,4.2421,4.2463,4.2652,4.2659,4.2512,4.2519,4.2523,4.2527,0,0,0,0,0,0,0,4.1949,4.1975,4.2231,4.2169,4.2172,4.2162,4.2179,4.2304,4.2353,4.2253,4.225,4.2271,4.2406,4.2452,4.2467,4.2662,4.2511,4.2521,4.2529,4.2533,4.2993,4.2998,0,0,0,0,0,0,4.1936,4.1966,4.2226,4.2236,4.2051,4.2172,4.2191,4.2256,4.2351,4.2361,4.2275,4.2268,4.2435,4.2454,4.2473,4.2673,4.2523,4.2534,4.2541,4.2988,4.2994,4.3,0,0,0,0,0,0,4.1929,4.196,4.2219,4.2101,4.2133,4.2183,4.2256,4.2261,4.2307,4.2368,4.2376,4.2312,4.2432,4.2457,4.2601,4.2679,4.2539,4.255,4.2982,4.299,4.2997,4.3077,0,0,0,0,0,0,4.1919,4.1957,4.2022,4.2102,4.2139,4.2345,4.2261,4.2268,4.2327,4.232,4.2405,4.2415,4.243,4.2584,4.2612,4.2692,4.2559,4.2975,4.2985,4.2995,4.3068,4.3087,4.3103,0,0,0,0,0,4.1906,4.2039,4.2025,4.2057,4.2221,4.235,4.2371,4.2385,4.2333,4.2398,4.2437,4.2412,4.2666,4.2599,4.263,4.2715,4.297,4.2982,4.2994,4.306,4.3083,4.3103,0,0,0,0,0,0,4.1968,4.205,4.2036,4.2199,4.2267,4.2342,4.2425,4.241,4.2495,4.2485,4.2499,4.2519,4.2665,4.2705,4.2629,4.2881,4.281,4.2829,4.2849,4.2872,4.289,4.2876,4.2568,0,0,0,0,0,4.2,4.2097,4.2164,4.2301,4.2336,4.2375,4.2431,4.2436,4.2508,4.2537,4.2586,4.2657,4.2752,4.2815,4.2906,4.3074,4.309,4.3147,4.3165,4.3179,4.3195,4.3283,4.3308,4.304,4.304,4.304,0,0,4.2068,4.2125,4.2186,4.2315,4.2368,4.2468,4.2399,4.2508,4.2582,4.2554,4.2691,4.273,4.281,4.2965,4.3036,4.3003,4.3272,4.3194,4.3205,4.3213,4.3298,4.3323,4.3346,4.3048,4.3047,4.3045,0,0,4.2242,4.2296,4.2415,4.2469,4.2551,4.2576,4.2604,4.2681,4.2705,4.2844,4.2823,4.2911,4.3076,4.3133,4.3183,4.3376,4.3356,4.3406,4.3498,4.3584,4.3605,4.3624,4.369,4.3714,4.3422,4.3422,4.3422,0,4.2317,4.2466,4.2478,4.2588,4.2644,4.2622,4.2741,4.2794,4.2902,4.294,4.2901,4.3105,4.3158,4.3325,4.3371,4.3414,4.3445,4.3396,4.3601,4.362,4.3638,4.3701,4.3726,4.3427,4.3427,4.3426,4.3426,0,4.2552,4.2655,4.2741,4.2844,4.291,4.3024,4.3053,4.3118,4.3117,4.3145,4.3285,4.3347,4.3449,4.3489,4.349,4.3656,4.3632,4.3597,4.3526,4.3668,4.3728,4.3752,4.3435,4.3433,4.3431,4.343,0,0,4.277,4.2876,4.2907,4.2952,4.3039,4.3119,4.3232,4.333,4.3385,4.346,4.3553,4.3692,4.3659,4.3716,4.3723,4.3799,4.3944,4.3754,4.3756,4.3785,4.4127,4.415,4.4178,4.3931,4.3936,4.394,4.4119,0,4.295,4.3147,4.316,4.3338,4.3432,4.3411,4.3509,4.3572,4.3602,4.3685,4.3718,4.3814,4.3766,4.3799,4.3874,4.3911,4.4012,4.3898,4.4017,4.4021,4.3995,4.421,4.4236,4.4402,4.4143,4.4147,4.415,0,4.3186,4.3266,4.3453,4.3524,4.3564,4.3651,4.3741,4.3822,4.3893,4.3909,4.3971,4.3967,4.4081,4.4007,4.4163,4.4085,4.4134,4.416,4.4166,4.4176,4.4092,4.4223,4.4456,4.448,4.4187,4.4184,4.4181,0,4.3323,4.3477,4.3608,4.3648,4.3735,4.3796,4.3835,4.3902,4.3959,4.4038,4.4075,4.4166,4.4216,4.4287,4.4306,4.4251,4.4461,4.4389,4.4475,4.4475,4.4519,4.4516,4.476,4.4555,4.4555,4.4555,4.4554,0,4.3521,4.3636,4.367,4.3751,4.3877,4.3891,4.4016,4.4052,4.411,4.4196,4.4185,4.4266,4.4288,4.4373,4.4389,4.4514,4.4538,4.4552,4.4555,4.4552,4.455,4.4583,4.4571,4.4561,4.456,4.4558,4.4557,0,4.3695,4.3723,4.3863,4.3934,4.3954,4.4044,4.4104,4.418,4.4207,4.4316,4.4342,4.4384,4.4483,4.451,4.4629,4.464,4.4786,4.4779,4.4761,4.4761,4.4844,4.4835,4.5117,4.5153,4.4927,4.4929,4.4931,0,4.3818,4.3905,4.3984,4.404,4.4081,4.4173,4.423,4.4247,4.4308,4.4393,4.4459,4.4556,4.4635,4.4793,4.4834,4.4925,4.4918,4.5011,4.4932,4.4925,4.4916,4.491,4.4917,4.5025,4.5028,4.503,4.5031,0,4.4034,4.4042,4.4126,4.4214,4.4283,4.4353,4.442,4.4467,4.4493,4.4561,4.4661,4.4722,4.4842,4.4938,4.5028,4.5068,4.5054,4.5056,4.508,4.5077,4.5062,4.5068,4.4799,4.5049,4.5047,4.5046,4.5045,4.5044,4.4184,4.4259,4.4325,4.4418,4.447,4.4532,4.4607,4.4642,4.4725,4.4823,4.4828,4.4936,4.5003,4.5122,4.5167,4.5251,4.5224,4.5259,4.5268,4.5276,4.5281,4.505,4.5268,4.5268,4.5267,4.5267,4.5267,0,4.4396,4.4437,4.4522,4.4615,4.4688,4.4667,4.474,4.4802,4.4896,4.4959,4.5036,4.5149,4.5242,4.5289,4.538,4.5438,4.5434,4.5461,4.5456,4.5465,4.5303,4.5271,4.5463,4.5463,4.5463,4.5463,4.5463,4.5463,4.4515,4.4639,4.4656,4.4806,4.4846,4.4951,4.4993,4.505,4.51,4.5227,4.5303,4.5333,4.5389,4.5484,4.5567,4.5578,4.5611,4.5642,4.565,4.5497,4.5477,4.5458,4.5428,4.565,4.565,4.5805,4.5806,4.5807]},{"header":{"parameterUnit":"m.s-1","parameterCategory":1,"la1":30.2991,"la2":30.254,"lo1":-89.0895,"lo2":-89.0444,"dy":0.0017,"dx":0.0017,"nx":28,"ny":28,"refTime":"2025-07-31T21:00:00:Z","depth":0,"parameterNumber":3,"parameterNumberName":"V-component_of_WINDS"},"data":[0,0,0,0,0,0,0,0,0,0,0,0,0,0,0,0,0,0,0,0,0,0,0,0,0,0,0,0,0,0,0,0,0,0,0,0,0,0,0,0,0,0,0,0,0,0,0,0,0,0,0,0,0,0,0,0,0,0,1.7291,1.7292,0,1.7371,1.7372,1.7373,1.7358,1.7357,1.7356,1.7354,1.7438,1.7441,1.7444,0,0,0,0,0,0,0,0,0,0,0,0,0,1.7124,1.7127,1.7291,1.7292,1.7293,1.7371,1.7372,1.7373,1.7359,1.7357,1.7355,1.7354,1.7436,1.7441,1.7445,0,0,0,0,0,0,0,0,0,0,0,0,0,1.7199,1.7128,1.729,1.7295,1.7296,1.7371,1.7372,1.7374,1.7359,1.7357,1.7355,1.7353,1.7435,1.744,1.7445,1.7521,0,0,1.7462,1.7464,0,0,0,0,0,0,0,0,1.7195,1.7206,1.7293,1.7295,1.7296,1.7353,1.7344,1.7423,1.736,1.7335,1.7354,1.7352,1.7411,1.7418,1.7438,1.7525,1.7529,1.7462,1.7465,1.7468,1.7469,0,0,0,0,0,0,0,1.719,1.7202,1.7323,1.7294,1.7296,1.7292,1.7301,1.7359,1.7384,1.7337,1.7336,1.7346,1.7411,1.7433,1.744,1.753,1.7462,1.7467,1.747,1.7472,1.7682,1.7684,0,0,0,0,0,0,1.7183,1.7198,1.732,1.7325,1.7239,1.7297,1.7307,1.7337,1.7383,1.7389,1.7348,1.7345,1.7425,1.7434,1.7443,1.7534,1.7468,1.7473,1.7476,1.7679,1.7682,1.7685,0,0,0,0,0,0,1.718,1.7194,1.7317,1.7261,1.7276,1.7302,1.7336,1.7339,1.7361,1.7391,1.7396,1.7365,1.7424,1.7435,1.7501,1.7537,1.7475,1.748,1.7677,1.768,1.7684,1.7717,0,0,0,0,0,0,1.7175,1.7193,1.7222,1.7262,1.7279,1.7374,1.7338,1.7342,1.737,1.7367,1.7409,1.7414,1.7423,1.7494,1.7507,1.7543,1.7484,1.7674,1.7678,1.7682,1.7713,1.7721,1.7729,0,0,0,0,0,1.7169,1.7229,1.7224,1.7239,1.7317,1.7376,1.7387,1.7395,1.7373,1.7402,1.7422,1.7412,1.753,1.75,1.7515,1.7553,1.7671,1.7677,1.7682,1.771,1.772,1.7728,0,0,0,0,0,0,1.7194,1.7235,1.7229,1.7304,1.7337,1.7374,1.7412,1.7406,1.7446,1.7442,1.7451,1.7461,1.7528,1.7547,1.7513,1.7628,1.7598,1.7606,1.7614,1.7624,1.7631,1.7625,1.7488,0,0,0,0,0,1.7208,1.7253,1.7286,1.7349,1.7366,1.7386,1.7412,1.7416,1.745,1.7464,1.7489,1.7522,1.7567,1.7596,1.7639,1.7715,1.7724,1.7749,1.7756,1.7763,1.777,1.7811,1.7822,1.7702,1.7702,1.7702,0,0,1.7238,1.7266,1.7294,1.7355,1.7381,1.7427,1.7398,1.7448,1.7482,1.7472,1.7536,1.7555,1.7593,1.7664,1.7697,1.7682,1.7805,1.777,1.7774,1.7778,1.7817,1.7829,1.7839,1.7706,1.7705,1.7705,0,0,1.7316,1.7342,1.7396,1.7422,1.7462,1.7474,1.7487,1.7525,1.7537,1.7601,1.7593,1.7634,1.7711,1.7738,1.7762,1.7848,1.7841,1.7862,1.7903,1.7942,1.7952,1.796,1.799,1.8001,1.7869,1.7869,1.7869,0,1.7348,1.7418,1.7425,1.7476,1.7503,1.7494,1.7549,1.7574,1.7626,1.7644,1.7627,1.7722,1.7747,1.7824,1.7845,1.7865,1.7879,1.7858,1.795,1.7958,1.7966,1.7995,1.8006,1.7871,1.7871,1.7871,1.7871,0,1.7455,1.7503,1.7543,1.7592,1.7622,1.7675,1.769,1.772,1.7721,1.7735,1.78,1.7829,1.7877,1.7896,1.7897,1.7973,1.7962,1.7947,1.7917,1.798,1.8007,1.8018,1.7875,1.7874,1.7873,1.7873,0,0,1.7553,1.7604,1.7618,1.7639,1.7681,1.7718,1.777,1.7816,1.7842,1.7877,1.792,1.7984,1.797,1.7997,1.8002,1.8036,1.8101,1.8017,1.8018,1.8031,1.8185,1.8196,1.8209,1.8096,1.8099,1.81,1.8182,0,1.7634,1.7726,1.7733,1.7815,1.7859,1.7851,1.7896,1.7926,1.794,1.7979,1.7995,1.804,1.8018,1.8034,1.8068,1.8086,1.8132,1.8081,1.8137,1.8138,1.8127,1.8223,1.8235,1.8311,1.8193,1.8194,1.8196,0,1.7742,1.778,1.7866,1.79,1.7919,1.7959,1.8001,1.8039,1.8072,1.808,1.811,1.8109,1.8161,1.8128,1.82,1.8164,1.8187,1.8199,1.8203,1.8208,1.8171,1.8231,1.8335,1.8347,1.8213,1.8211,1.821,0,1.7804,1.7876,1.7936,1.7955,1.7997,1.8025,1.8044,1.8075,1.8102,1.8139,1.8156,1.8199,1.8222,1.8255,1.8265,1.824,1.8336,1.8304,1.8344,1.8344,1.8365,1.8363,1.8474,1.838,1.838,1.8379,1.8379,0,1.7894,1.7947,1.7965,1.8002,1.8061,1.8068,1.8126,1.8143,1.817,1.821,1.8206,1.8243,1.8255,1.8294,1.8302,1.836,1.8371,1.8378,1.838,1.8379,1.8378,1.8394,1.8389,1.8382,1.8382,1.8381,1.8381,0,1.7974,1.7987,1.8053,1.8086,1.8096,1.8137,1.8166,1.8201,1.8214,1.8265,1.8277,1.8297,1.8343,1.8356,1.8412,1.8417,1.8485,1.8482,1.8474,1.8474,1.8512,1.8508,1.8637,1.8654,1.8549,1.855,1.8551,0,1.8031,1.8071,1.8108,1.8134,1.8154,1.8197,1.8223,1.8232,1.826,1.83,1.8331,1.8376,1.8413,1.8486,1.8506,1.8548,1.8545,1.8588,1.8552,1.8549,1.8546,1.8543,1.8547,1.8595,1.8596,1.8597,1.8597,0,1.813,1.8134,1.8173,1.8214,1.8247,1.828,1.8311,1.8333,1.8345,1.8377,1.8424,1.8452,1.8508,1.8553,1.8595,1.8613,1.8608,1.8608,1.862,1.8619,1.8612,1.8616,1.8492,1.8605,1.8605,1.8604,1.8604,1.8603,1.8199,1.8234,1.8266,1.8309,1.8333,1.8363,1.8397,1.8414,1.8453,1.8499,1.8501,1.8551,1.8582,1.8638,1.8659,1.8698,1.8685,1.8702,1.8706,1.871,1.8713,1.8606,1.8706,1.8705,1.8705,1.8705,1.8705,0,1.8298,1.8317,1.8357,1.8401,1.8435,1.8425,1.8459,1.8488,1.8532,1.8562,1.8597,1.865,1.8693,1.8715,1.8758,1.8784,1.8783,1.8795,1.8793,1.8798,1.8722,1.8708,1.8796,1.8796,1.8796,1.8796,1.8796,1.8796,1.8353,1.8412,1.8419,1.8489,1.8508,1.8557,1.8577,1.8604,1.8627,1.8686,1.8722,1.8736,1.8762,1.8806,1.8844,1.885,1.8865,1.8879,1.8883,1.8812,1.8803,1.8794,1.8781,1.8883,1.8883,1.8955,1.8956,1.8957]}]]